Location: Newark
(46.2667°N, 5.0658°E)
Time: 22:14:50
(UTC+00:00)

ISS - Visible Passes

Search period start: 20 September 2019 00:00
Search period end: 30 September 2019 00:00
Orbit: 411 x 421 km, 51.6° (Epoch: 21 September)

Date Brightness Start Highest point End Pass type
(mag) Time Alt. Az. Time Alt. Az. Time Alt. Az.
20 Sep -3.8 19:23:10 10° SW 19:26:20 58° SSE 19:26:20 58° SSE visible
21 Sep -3.1 18:34:59 10° SSW 18:38:04 37° SE 18:40:16 17° E visible
21 Sep -1.6 20:11:32 10° W 20:13:11 25° W 20:13:11 25° W visible
22 Sep -3.5 19:22:58 10° WSW 19:26:15 66° NNW 19:26:56 49° NE visible
23 Sep -3.9 18:34:28 10° WSW 18:37:47 86° SSE 18:40:33 14° ENE visible
23 Sep -1.4 20:11:42 10° WNW 20:13:27 24° NW 20:13:27 24° NW visible
24 Sep -2.7 19:23:01 10° W 19:26:11 39° NNW 19:26:58 33° NNE visible
25 Sep -3.0 18:34:22 10° W 18:37:37 50° NNW 18:40:24 13° NE visible
25 Sep -1.2 20:11:47 10° WNW 20:13:17 21° NW 20:13:17 21° NW visible
26 Sep -2.4 19:23:08 10° WNW 19:26:10 31° N 19:26:39 30° NNE visible
27 Sep -2.5 18:34:26 10° WNW 18:37:31 34° N 18:39:58 14° NE visible
27 Sep -1.0 20:11:40 10° WNW 20:12:52 19° NW 20:12:52 19° NW visible
28 Sep -2.5 19:23:05 10° WNW 19:26:07 32° N 19:26:09 32° N visible
29 Sep -2.4 18:34:26 10° WNW 18:37:27 31° N 18:39:25 17° NE visible
29 Sep -0.8 20:11:21 10° WNW 20:12:18 17° NW 20:12:18 17° NW visible
